Location: *
(51.2167°N, 10.0667°E)
Time: 14:21:57
(UTC+00:00)

Nadezhda 4 Rocket - Pass Details

Date: 12 December 2019
Orbit: 949 x 993 km, 82.9° (Epoch: 29 January)

Event Time Altitude Azimuth Distance (km) Brightness Sun altitude
Rises 16:35:17 0° 184° (S) 3,697 7.4 -12.1°
Reaches altitude 10° 16:37:48 10° 184° (S) 2,751 6.7 -12.5°
Maximum altitude 16:44:07 83° 98° (E) 1,005 4.0 -13.4°
Drops below altitude 10° 16:50:27 10° 11° (NNE) 2,752 6.1 -14.4°
Sets 16:52:58 0° 11° (N) 3,699 6.7 -14.7°
